Weather History for KVPS - February, 2014

Change the Weather History Date:

Sunday, February 2, 2014

  Actual Average Record
Temperature  
Mean Temperature 55 °F -  
Max Temperature 60 °F 63 °F 66 °F (2015)
Min Temperature 50 °F 41 °F 34 °F (2015)
Degree Days  
Heating Degree Days 10    
Growing Degree Days 5 (Base 50)    
Moisture  
Dew Point 57 °F    
Average Humidity 99    
Maximum Humidity 100    
Minimum Humidity 88    
Precipitation  
Precipitation 0.00 in - - ()
Sea Level Pressure  
Sea Level Pressure 30.08 in    
Wind  
Wind Speed 7 mph (ESE)    
Max Wind Speed 14 mph    
Max Gust Speed -    
Visibility 3 miles    
Events Fog    
Averages and records for this station are not official NWS values.
T = Trace of Precipitation, MM = Missing Value Source: NWS Daily Summary

Daily Weather History Graph

Daily Weather History Graph

Search for Another Location

Airport or City:

Trip Planner

Search our weather history database for the weather conditions in past years. The results will help you decide how hot, cold, wet, or windy it might be!

Date:

Astronomy

Feb. 02, 2014 Rise Set
Actual Time 6:36 AM CST 5:23 PM CST
Civil Twilight 6:11 AM CST 5:48 PM CST
Nautical Twilight 5:42 AM CST 6:17 PM CST
Astronomical Twilight 5:14 AM CST 6:45 PM CST
Moon 8:19 AM CST (2/2) 8:47 PM CST (2/2)
Length of Visible Light 11h 37m
Length of Day
10h 46m
Waxing Crescent, 11% of the Moon is Illuminated
Feb 2
Waxing Crescent
Feb 6
First Quarter
Feb 14
Full
Feb 22
Last Quarter
Mar 1
New

Hourly Weather History & Observations

Time (CST) Temp. Dew Point Humidity Pressure Visibility Wind Dir Wind Speed Gust Speed Precip Events Conditions
12:55 AM 53.8 °F 53.8 °F 100% 30.13 in 0.2 mi ESE 6.9 mph - N/A Fog Fog
1:55 AM 53.8 °F 53.8 °F 100% 30.13 in 0.2 mi ESE 6.9 mph - N/A Fog Fog
2:55 AM 53.4 °F 53.4 °F 100% 30.11 in 0.5 mi ESE 6.9 mph - N/A Fog Fog
3:55 AM 53.1 °F 53.1 °F 100% 30.12 in 0.5 mi Variable 1.2 mph - N/A Fog Fog
4:01 AM 53.6 °F 53.6 °F 100% 30.10 in 0.5 mi NNE 3.5 mph - N/A Fog Fog
4:25 AM 53.6 °F 53.6 °F 100% 30.10 in 1.8 mi East 2.3 mph - N/A   Overcast
4:37 AM 53.6 °F 53.6 °F 100% 30.10 in 5.0 mi East 3.5 mph - N/A   Overcast
4:55 AM 53.1 °F 53.1 °F 100% 30.12 in 7.0 mi East 3.5 mph - N/A   Overcast
5:55 AM 52.0 °F 52.0 °F 100% 30.13 in 5.0 mi ESE 3.5 mph - N/A   Mostly Cloudy
6:16 AM 51.8 °F 51.8 °F 100% 30.12 in 3.0 mi SE 5.8 mph - N/A   Overcast
6:55 AM 50.9 °F 50.9 °F 100% 30.14 in 5.0 mi East 4.6 mph - N/A   Overcast
7:10 AM 51.8 °F 51.8 °F 100% 30.12 in 1.0 mi East 4.6 mph - N/A   Overcast
7:19 AM 51.8 °F 51.8 °F 100% 30.12 in 0.2 mi East 5.8 mph - N/A   Overcast
7:33 AM 51.8 °F 51.8 °F 100% 30.12 in 0.2 mi ESE 8.1 mph - N/A Fog Fog
7:55 AM 52.9 °F 52.9 °F 100% 30.14 in 0.2 mi ESE 8.1 mph - N/A Fog Fog
8:55 AM 54.3 °F 54.3 °F 100% 30.15 in 0.2 mi ESE 9.2 mph - N/A Fog Fog
9:35 AM 55.4 °F 55.4 °F 100% 30.13 in 1.0 mi East 9.2 mph - N/A   Overcast
9:43 AM 55.4 °F 55.4 °F 100% 30.13 in 2.0 mi ESE 9.2 mph - N/A   Overcast
9:55 AM 55.4 °F 55.4 °F 100% 30.15 in 4.0 mi SE 8.1 mph - N/A   Overcast
10:05 AM 55.4 °F 55.4 °F 100% 30.13 in 5.0 mi SE 6.9 mph - N/A   Overcast
10:28 AM 57.2 °F 57.2 °F 100% 30.13 in 7.0 mi ESE 10.4 mph - N/A   Mostly Cloudy
10:38 AM 57.2 °F 57.2 °F 100% 30.12 in 10.0 mi ESE 9.2 mph - N/A   Mostly Cloudy
10:51 AM 57.2 °F 57.2 °F 100% 30.12 in 10.0 mi ESE 9.2 mph - N/A   Mostly Cloudy
10:55 AM 57.4 °F 57.4 °F 100% 30.14 in 10.0 mi ESE 9.2 mph - N/A   Mostly Cloudy
11:36 AM 59.0 °F 59.0 °F 100% 30.10 in 10.0 mi SE 13.8 mph - N/A   Mostly Cloudy
11:55 AM 59.2 °F 59.2 °F 100% 30.11 in 10.0 mi SSE 12.7 mph - N/A   Mostly Cloudy
12:04 PM 59.0 °F 59.0 °F 100% 30.09 in 10.0 mi SE 12.7 mph - N/A   Mostly Cloudy
12:55 PM 58.5 °F 58.5 °F 100% 30.08 in 10.0 mi SE 11.5 mph - N/A   Overcast
1:34 PM 60.8 °F 57.2 °F 88% 30.04 in 10.0 mi SE 11.5 mph - N/A   Overcast
1:55 PM 60.6 °F 57.6 °F 90% 30.06 in 10.0 mi SE 12.7 mph - N/A   Overcast
2:07 PM 60.8 °F 57.2 °F 88% 30.03 in 10.0 mi SE 12.7 mph - N/A   Overcast
2:34 PM 59.0 °F 59.0 °F 100% 30.02 in 10.0 mi SE 10.4 mph - N/A   Overcast
2:43 PM 59.0 °F 59.0 °F 100% 30.02 in 2.5 mi SE 10.4 mph - N/A   Overcast
2:48 PM 59.0 °F 59.0 °F 100% 30.02 in 0.5 mi SE 11.5 mph - N/A Fog Fog
2:59 PM 59.0 °F 59.0 °F 100% 30.04 in 0.2 mi ESE 10.4 mph - N/A Fog Fog
3:08 PM 59.0 °F 59.0 °F 100% 30.03 in 0.2 mi ESE 10.4 mph - N/A Fog Fog
3:18 PM 59.0 °F 59.0 °F 100% 30.02 in 0.2 mi ESE 11.5 mph - N/A Fog Fog
3:27 PM 59.0 °F 59.0 °F 100% 30.03 in 0.2 mi ESE 10.4 mph - N/A Fog Fog
3:55 PM 58.3 °F 58.3 °F 100% 30.05 in 0.2 mi ESE 10.4 mph - N/A Fog Fog
4:55 PM 58.8 °F 58.8 °F 100% 30.06 in 0.2 mi ESE 9.2 mph - N/A Fog Fog
5:24 PM 59.0 °F 59.0 °F 100% 30.03 in 0.2 mi ESE 8.1 mph - N/A Fog Fog
5:55 PM 59.0 °F 59.0 °F 100% 30.05 in 0.3 mi ESE 9.2 mph - N/A Fog Fog
6:44 PM 59.0 °F 59.0 °F 100% 30.02 in 0.3 mi ESE 10.4 mph - N/A Fog Fog
6:55 PM 59.2 °F 59.2 °F 100% 30.04 in 0.3 mi ESE 9.2 mph - N/A Fog Fog
7:29 PM 59.0 °F 59.0 °F 100% 30.02 in 0.2 mi ESE 10.4 mph - N/A Fog Fog
7:57 PM 59.0 °F 59.0 °F 100% 30.04 in 0.2 mi ESE 8.1 mph - N/A Fog Fog
8:55 PM 58.8 °F 58.8 °F 100% 30.04 in 0.2 mi ESE 6.9 mph - N/A Fog Fog
9:55 PM 59.2 °F 59.2 °F 100% 30.04 in 0.2 mi ESE 5.8 mph - N/A Fog Fog
10:55 PM 58.6 °F 58.6 °F 100% 30.04 in 0.2 mi ESE 5.8 mph - N/A Fog Fog
11:31 PM 59.0 °F 59.0 °F 100% 30.00 in 0.2 mi ESE 3.5 mph - N/A Fog Fog
11:55 PM 58.8 °F 58.8 °F 100% 30.03 in 0.2 mi ESE 3.5 mph - N/A Fog Fog